Wind_Speed
70 70 67 65 64 64 63 63 64 64 64 64 64 66 68 66 62 59 56 55 55 54 51 50 52 55 56 56 56 55 54 52 55 58 58 58 56 52 52 51 50 51 51
64 62 62 62 63 63 64 64 65 64 63 66 67 67 64 59 55 55 55 57 51 51 53 52 48 49 52 52 53 55 57 53 51 53 54 51 53 55 53 54 53 52 53
61 62 63 63 63 63 62 62 62 64 66 66 65 61 57 56 53 56 57 56 55 54 50 47 49 49 54 53 52 50 52 51 52 53 54 55 54 55 57 55 56 54 53
62 62 62 61 60 60 61 63 64 64 63 61 58 54 53 55 58 59 61 59 57 53 50 50 51 49 50 49 51 50 53 53 54 54 55 55 55 56 57 57 57 57 58
60 59 59 61 61 62 63 61 60 59 57 54 52 53 54 56 59 57 55 56 55 49 52 51 51 53 51 51 52 53 55 55 55 56 57 57 58 59 60 59 61 62 65
65 62 63 64 63 62 61 58 56 54 53 52 54 55 56 57 57 55 55 51 50 49 49 50 50 51 53 53 54 55 56 57 58 60 60 60 61 62 64 65 67 70 71
67 67 65 64 61 58 57 56 53 52 52 52 54 55 56 55 53 50 48 49 48 48 48 50 51 52 54 55 57 58 59 60 62 61 62 64 66 69 72 74 77 80 83
68 67 64 62 60 59 57 54 52 52 52 52 51 51 51 51 47 48 50 50 49 49 50 51 53 55 56 58 61 61 61 60 62 63 67 70 74 77 79 81 83 85 88
64 63 60 58 57 56 56 55 55 54 53 52 51 50 49 47 47 50 53 58 49 49 51 54 55 57 59 60 61 62 62 64 68 71 74 77 80 83 86 89 92 95 96
55 55 54 54 55 55 54 54 53 54 54 52 52 52 54 48 57 58 65 56 49 50 52 56 59 60 62 63 63 65 66 69 72 76 79 82 86 89 93 95 98 101 107
53 52 53 54 54 53 51 50 49 50 50 51 51 53 51 51 57 63 61 59 52 53 58 60 62 63 64 66 67 69 71 74 78 80 84 88 91 94 97 101 104 105 102
56 54 52 51 51 52 52 53 56 56 56 56 55 55 53 56 63 66 61 65 57 61 63 62 64 66 67 69 71 73 76 80 83 86 89 92 95 98 102 103 99 89 78
60 61 59 51 51 50 52 52 53 54 57 56 56 57 59 58 65 65 67 66 67 66 68 68 67 68 70 73 76 79 82 85 88 91 94 97 100 104 100 90 81 72 68
61 65 64 60 61 63 63 65 61 60 60 58 57 59 60 60 60 70 69 69 69 72 73 69 68 71 74 77 80 84 87 90 93 95 99 102 103 93 83 75 68 66 64
71 67 63 59 61 64 63 65 63 62 60 61 60 60 60 65 70 71 65 65 69 72 70 70 72 75 77 81 85 89 91 94 96 100 103 101 88 77 70 67 67 65 64
65 65 69 64 65 67 69 69 67 67 65 62 62 64 67 70 70 61 62 68 69 70 71 73 77 80 83 86 89 92 94 97 100 99 89 79 73 68 68 66 64 64 63
72 67 66 61 59 63 64 65 65 65 64 62 64 68 72 72 63 58 68 71 72 73 75 78 82 85 88 90 91 93 96 95 89 79 73 69 67 65 65 65 63 63 63
61 60 65 63 63 68 70 66 63 68 68 65 65 64 61 62 64 70 71 72 73 77 80 83 86 89 90 92 94 94 89 80 74 69 66 65 64 65 64 64 64 64 65
63 60 66 65 69 73 68 68 64 58 58 59 58 61 62 66 70 71 73 76 79 81 84 85 86 88 91 91 88 80 73 69 65 64 64 64 64 64 64 64 64 66 70
64 58 55 53 49 52 54 57 62 60 61 62 64 65 68 71 73 75 77 78 79 81 83 87 90 89 85 78 72 68 65 64 64 63 63 64 63 64 64 65 68 70 70
39 39 39 39 42 46 49 52 55 60 62 64 66 69 71 73 75 76 78 79 81 85 87 85 82 77 69 65 64 64 63 64 65 64 63 62 63 64 67 70 70 68 68
43 43 43 43 46 49 51 55 58 62 66 68 71 73 74 75 77 80 83 85 85 81 75 70 65 65 64 63 64 64 64 65 65 63 63 64 65 68 70 69 67 67 66
48 46 46 49 52 54 57 60 63 65 66 68 70 73 76 77 76 74 72 69 66 64 63 63 62 64 64 63 63 62 62 62 62 63 64 66 69 70 68 66 65 65 64
48 50 52 55 56 58 60 61 63 65 66 65 64 64 63 62 61 60 59 59 59 59 58 59 58 59 60 60 60 61 61 62 64 65 67 69 68 67 66 65 64 64 65
44 46 47 48 48 49 49 50 52 53 54 54 54 54 54 53 53 53 53 53 54 55 56 56 57 57 57 58 59 61 63 65 66 68 69 66 65 64 64 64 64 66 68
44 44 44 45 45 45 46 47 47 48 48 49 50 50 50 51 51 51 53 53 54 55 56 57 57 58 59 60 62 64 65 66 67 66 65 64 63 64 64 65 67 69 70
Wind_Direction
276 278 279 278 280 280 280 279 280 281 282 281 281 282 282 283 285 288 290 291 290 291 286 287 286 284 282 280 283 284 283 285 284 282 280 282 283 284 287 286 285 284 283
276 276 276 277 277 276 277 278 279 279 279 281 282 282 283 285 286 288 289 287 284 286 287 286 288 288 287 288 287 284 285 287 283 280 282 283 284 282 282 282 283 283 283
274 274 274 274 274 276 277 276 277 278 279 280 280 281 283 282 282 283 284 284 285 288 285 287 287 289 284 285 285 282 283 284 284 284 284 285 285 283 284 284 283 284 283
272 273 274 275 275 275 275 276 276 277 278 279 279 280 278 278 280 280 283 285 287 287 284 285 287 285 287 285 283 283 285 287 287 288 287 288 288 287 286 285 283 282 280
272 272 272 272 272 274 275 277 278 279 278 277 277 277 276 277 280 281 283 283 284 285 287 286 286 284 283 283 284 284 284 286 286 287 287 287 287 286 286 285 284 283 283
272 271 270 270 273 275 276 276 276 277 277 277 277 277 278 278 279 282 284 283 283 283 284 282 282 283 283 283 284 284 284 284 284 284 285 285 285 284 285 286 286 287 284
270 270 270 271 272 273 274 275 276 276 276 278 278 277 277 279 279 280 282 282 281 283 283 282 283 284 285 286 286 286 287 288 287 286 287 288 290 290 290 288 290 291 291
271 271 273 273 273 274 273 276 273 274 276 276 277 276 276 277 279 280 279 279 281 283 284 286 287 288 288 287 287 288 289 290 289 290 290 291 291 293 294 294 295 294 294
275 277 278 276 274 273 272 271 272 273 273 275 276 276 276 276 274 276 286 282 278 282 285 286 287 289 288 289 291 291 291 291 292 294 295 295 296 298 299 300 301 300 299
278 275 273 270 270 272 273 273 272 273 274 274 274 275 276 275 278 280 281 278 281 284 288 289 289 290 291 292 291 290 291 293 296 297 298 300 301 302 303 304 307 308 308
273 272 271 270 271 272 272 271 273 275 276 280 278 277 277 279 280 279 275 287 289 287 288 289 289 290 292 292 291 292 294 296 297 298 300 301 302 305 306 307 306 304 304
275 269 268 270 271 271 272 272 273 277 279 280 278 276 279 276 276 274 282 288 285 284 288 289 292 293 292 292 293 294 296 297 299 299 300 302 304 305 304 304 303 303 301
268 268 266 269 272 275 278 278 278 280 280 279 279 279 280 273 276 280 281 284 286 284 290 292 291 292 292 293 294 296 298 299 299 300 302 303 303 302 303 302 301 300 300
268 267 271 272 273 271 274 277 275 276 276 277 276 277 276 276 272 271 279 281 279 280 288 289 290 290 291 294 295 297 297 298 299 301 302 302 302 302 300 300 298 298 298
274 268 270 271 274 273 272 272 274 275 276 277 275 277 277 267 271 275 279 276 278 285 287 287 288 290 291 293 294 296 297 298 299 301 301 301 300 299 298 298 298 297 298
266 269 269 267 270 272 273 273 274 275 275 274 274 275 269 271 274 278 274 277 284 284 285 286 288 289 291 293 294 296 297 298 300 301 301 300 300 299 298 297 296 297 298
263 267 270 270 273 274 272 271 273 273 274 274 272 270 269 271 275 270 275 280 282 283 285 286 287 289 291 293 295 296 297 299 301 299 299 298 298 298 297 297 297 299 301
271 271 271 267 270 272 273 272 273 274 272 265 264 271 271 272 271 277 279 281 284 285 286 287 289 291 293 294 295 297 298 298 297 298 298 299 298 298 297 298 299 301 303
270 268 265 266 269 265 265 264 269 269 263 272 271 272 271 273 277 279 281 282 283 285 286 288 290 291 293 295 297 296 295 296 297 298 299 298 298 298 298 300 302 304 305
267 264 265 261 262 263 262 263 260 260 263 268 269 270 272 275 278 280 281 283 285 286 288 289 290 293 295 295 295 295 296 297 298 298 298 298 299 299 300 302 303 305 304
265 266 264 263 261 259 259 261 262 264 267 270 272 274 276 278 280 282 283 285 286 287 290 292 292 293 293 294 295 296 296 297 297 297 298 299 299 300 302 303 305 304 304
265 264 264 264 264 264 265 266 267 269 271 272 275 277 279 281 283 284 285 286 288 289 289 291 291 292 293 294 294 295 296 297 296 297 298 299 300 301 303 304 303 304 304
265 265 264 264 266 268 270 272 274 276 277 278 280 280 281 284 286 287 288 289 290 290 291 291 292 292 293 293 294 295 295 295 295 296 298 299 301 303 303 303 303 303 303
266 267 268 269 270 271 274 277 278 279 280 281 282 284 285 287 288 289 290 291 292 292 293 294 294 294 295 295 295 295 295 295 295 296 298 300 302 302 302 303 304 303 304
276 276 276 276 276 276 277 278 280 281 283 285 287 288 290 291 292 292 293 294 295 295 296 296 296 296 296 296 296 295 295 295 296 298 300 302 302 302 303 303 304 305 306
272 273 275 276 278 278 280 281 282 284 286 288 289 290 291 292 292 294 294 294 295 295 295 295 295 296 297 296 296 295 296 297 299 300 301 302 303 304 304 305 305 306 306
Height
5705 5703 5701 5699 5697 5694 5691 5688 5685 5683 5680 5676 5673 5670 5666 5662 5658 5654 5652 5649 5647 5644 5641 5638 5635 5632 5630 5627 5625 5623 5623 5622 5620 5616 5613 5611 5608 5606 5602 5600 5598 5597 5595
5688 5687 5685 5683 5680 5676 5674 5671 5669 5666 5663 5660 5657 5653 5649 5646 5644 5641 5639 5637 5634 5631 5629 5626 5622 5619 5616 5613 5610 5607 5606 5606 5605 5603 5599 5597 5595 5593 5590 5588 5585 5582 5580
5670 5669 5667 5665 5662 5660 5659 5656 5653 5650 5647 5643 5640 5637 5634 5632 5630 5628 5625 5623 5621 5618 5615 5612 5610 5606 5603 5600 5597 5593 5591 5589 5587 5585 5584 5581 5580 5578 5576 5572 5570 5568 5565
5653 5651 5649 5648 5646 5644 5642 5640 5637 5633 5630 5627 5624 5622 5620 5618 5616 5614 5611 5609 5607 5604 5601 5598 5596 5592 5588 5585 5583 5579 5577 5575 5572 5570 5567 5565 5563 5561 5559 5557 5556 5552 5550
5635 5634 5633 5631 5629 5627 5624 5622 5619 5617 5614 5612 5609 5608 5606 5604 5602 5599 5596 5594 5592 5589 5587 5585 5581 5578 5574 5571 5569 5565 5563 5561 5558 5554 5552 5549 5547 5545 5542 5540 5538 5536 5533
5617 5617 5615 5613 5611 5610 5608 5605 5603 5601 5599 5598 5596 5594 5592 5590 5588 5585 5582 5580 5578 5576 5573 5571 5568 5565 5561 5558 5555 5552 5548 5545 5542 5539 5535 5532 5529 5526 5524 5522 5518 5514 5513
5598 5597 5597 5596 5594 5592 5591 5590 5588 5586 5584 5583 5581 5579 5577 5575 5573 5570 5567 5565 5563 5561 5559 5557 5554 5551 5547 5542 5540 5536 5532 5528 5525 5521 5517 5513 5510 5505 5503 5500 5495 5490 5484
5580 5579 5579 5579 5579 5578 5576 5575 5573 5572 5570 5568 5566 5564 5562 5560 5558 5556 5554 5550 5549 5547 5545 5542 5539 5536 5533 5527 5523 5518 5513 5509 5506 5502 5498 5493 5488 5483 5478 5473 5469 5463 5456
5567 5566 5565 5564 5562 5562 5561 5560 5558 5557 5555 5554 5552 5550 5549 5546 5544 5543 5540 5537 5533 5531 5530 5526 5523 5519 5517 5512 5507 5502 5496 5492 5487 5482 5476 5471 5464 5458 5451 5445 5438 5432 5428
5551 5549 5548 5547 5546 5545 5546 5545 5543 5542 5541 5539 5537 5534 5533 5532 5529 5528 5525 5521 5518 5515 5513 5509 5506 5502 5498 5495 5490 5486 5480 5473 5467 5460 5454 5447 5439 5431 5424 5416 5408 5399 5388
5535 5534 5533 5532 5532 5531 5530 5530 5528 5528 5526 5524 5522 5520 5518 5517 5514 5511 5508 5504 5503 5499 5496 5493 5489 5485 5481 5477 5472 5468 5462 5455 5448 5441 5434 5426 5417 5407 5399 5389 5378 5367 5355
5520 5520 5519 5518 5518 5517 5516 5515 5514 5512 5511 5509 5507 5504 5503 5501 5499 5495 5490 5487 5485 5483 5478 5474 5470 5466 5462 5458 5453 5448 5441 5435 5428 5421 5414 5406 5396 5385 5376 5366 5353 5340 5328
5505 5506 5504 5503 5503 5502 5501 5499 5498 5496 5495 5493 5490 5488 5486 5485 5482 5479 5476 5471 5468 5465 5461 5457 5452 5447 5442 5438 5433 5427 5420 5414 5408 5400 5391 5382 5373 5362 5351 5341 5330 5321 5313
5488 5488 5488 5486 5485 5484 5484 5483 5481 5479 5477 5474 5472 5470 5468 5466 5464 5462 5459 5457 5452 5448 5444 5439 5434 5429 5424 5418 5413 5406 5400 5393 5386 5378 5369 5359 5349 5337 5326 5318 5311 5304 5300
5469 5470 5469 5467 5466 5465 5464 5463 5461 5460 5458 5457 5454 5452 5449 5448 5445 5443 5440 5439 5435 5430 5425 5421 5416 5411 5405 5399 5392 5385 5378 5371 5363 5354 5345 5335 5324 5315 5306 5298 5292 5287 5281
5450 5450 5450 5448 5446 5444 5444 5443 5442 5440 5438 5437 5435 5433 5431 5429 5427 5424 5423 5421 5417 5411 5406 5402 5397 5391 5385 5378 5371 5363 5356 5348 5339 5330 5320 5311 5304 5296 5288 5280 5274 5269 5263
5430 5430 5428 5427 5425 5425 5423 5423 5422 5420 5418 5416 5415 5414 5412 5411 5409 5407 5405 5401 5397 5392 5387 5382 5376 5370 5363 5356 5348 5340 5332 5323 5315 5307 5299 5291 5285 5278 5270 5263 5257 5251 5245
5409 5407 5407 5406 5405 5405 5404 5404 5403 5402 5400 5399 5397 5397 5394 5392 5391 5388 5384 5380 5376 5371 5366 5360 5354 5347 5341 5333 5326 5318 5308 5300 5293 5286 5279 5273 5267 5261 5253 5246 5239 5233 5227
5387 5386 5386 5385 5384 5384 5384 5385 5385 5384 5383 5382 5381 5379 5377 5375 5373 5369 5363 5359 5354 5349 5343 5337 5330 5324 5318 5311 5303 5295 5287 5280 5273 5268 5261 5256 5249 5243 5235 5228 5222 5215 5207
5367 5365 5364 5364 5364 5365 5365 5366 5366 5367 5367 5366 5364 5361 5359 5355 5352 5348 5343 5337 5331 5326 5320 5314 5308 5302 5295 5288 5281 5275 5268 5261 5256 5250 5244 5238 5232 5225 5218 5211 5203 5197 5188
5350 5349 5349 5348 5349 5350 5350 5350 5350 5350 5349 5347 5346 5343 5339 5333 5330 5326 5322 5316 5310 5304 5299 5291 5285 5279 5273 5267 5262 5256 5250 5242 5237 5232 5226 5220 5214 5208 5200 5192 5185 5176 5168
5336 5336 5336 5336 5336 5336 5335 5334 5333 5332 5330 5328 5325 5322 5319 5312 5308 5303 5299 5294 5288 5281 5276 5270 5264 5259 5255 5249 5243 5238 5231 5224 5219 5213 5208 5202 5196 5189 5181 5173 5165 5158 5150
5322 5321 5321 5320 5320 5319 5318 5316 5314 5312 5310 5307 5304 5301 5297 5292 5286 5281 5276 5271 5265 5260 5257 5252 5246 5240 5236 5231 5225 5220 5214 5207 5202 5196 5191 5184 5177 5169 5161 5155 5147 5140 5132
5307 5306 5306 5305 5303 5301 5299 5297 5295 5293 5290 5286 5283 5280 5276 5272 5266 5261 5257 5252 5247 5242 5237 5233 5228 5223 5218 5212 5206 5201 5196 5190 5184 5178 5172 5167 5159 5150 5142 5136 5128 5121 5114
5292 5291 5290 5288 5287 5285 5283 5280 5278 5275 5272 5268 5265 5261 5256 5252 5248 5244 5240 5236 5231 5225 5219 5215 5210 5205 5201 5195 5189 5183 5178 5171 5165 5159 5153 5146 5140 5132 5124 5118 5110 5103 5095
5279 5277 5276 5274 5272 5268 5265 5263 5261 5258 5255 5252 5248 5244 5240 5236 5231 5227 5224 5220 5214 5208 5203 5197 5192 5188 5183 5177 5171 5165 5159 5152 5146 5138 5133 5127 5120 5113 5105 5099 5091 5084 5076